Regional Weather Roundup
Issued by NWS

Home | Current Version | Previous Version | Graphics & Text | Print | Product List | Glossary On
Versions: 1 2 3 4 5 6 7 8 9 10 11 12 13 14 15 16 17 18 19 20 21 22 23 24 25 26 27 28 29 30 31 32 33 34 35 36 37 38 39 40 41 42 43 44 45 46 47 48 49 50
000
ASUS43 KFSD 200310
RWRSD

WEATHER ROUNDUP FOR SOUTH DAKOTA
NATIONAL WEATHER SERVICE SIOUX FALLS SD
1000 PM CDT THU APR 19 2018

NOTE: "FAIR" INDICATES FEW OR NO CLOUDS BELOW 12,000 FEET WITH NO
SIGNIFICANT WEATHER AND/OR OBSTRUCTIONS TO VISIBILITY.


SDZ001>005-009-010-012>017-200400-
NORTHWEST AND NORTH CENTRAL SOUTH DAKOTA

CITY           SKY/WX    TMP DP  RH WIND       PRES   REMARKS
BUFFALO          N/A     47  30  51 E20       30.14R
FAITH            N/A     42  34  73 SE17      30.25R
MOBRIDGE       PTCLDY    41  31  67 SE9       30.31R
$$

SDZ012>016-024>037-041>051-057-063-072>074-200400-
SOUTHWEST AND SOUTH CENTRAL SOUTH DAKOTA

CITY           SKY/WX    TMP DP  RH WIND       PRES   REMARKS
RAPID CTY ARPT CLOUDY    47  31  53 SE18      30.16R
PIERRE         MOCLDY    39  29  67 SE12      30.33R
CUSTER         CLOUDY    43  25  49 E9G18     30.16S
ELLSWORTH AFB  CLOUDY    46  33  61 SE16      30.16R
PHILIP         CLOUDY    41  32  70 E15       30.26R
PINE RIDGE     CLOUDY    49  30  48 E13       30.17R
SPEARFISH      FAIR      45  32  61 E20       30.15F
WINNER         FAIR      36  28  73 SE14      30.33R
$$

SDZ004>011-016>023-039-040-200400-
NORTHEAST SOUTH DAKOTA

CITY           SKY/WX    TMP DP  RH WIND       PRES   REMARKS
ABERDEEN       PTCLDY    36  28  73 S8        30.40R
WATERTOWN      CLEAR     38  28  67 SE3       30.39R
BROOKINGS      CLOUDY    36  29  75 SE7       30.42R
SISSETON         N/A     38  33  82 S6        30.39R
$$

SDZ017-020-022-023-036>040-048>070-200400-
SOUTHEAST SOUTH DAKOTA

CITY           SKY/WX    TMP DP  RH WIND       PRES   REMARKS
SIOUX FALLS    CLOUDY    34  28  79 E7        30.42R WCI  28
HURON          PTCLDY    36  28  73 SE6       30.40R
CHAMBERLAIN    PTCLDY    37  33  83 SE8       30.37R
MITCHELL       PTCLDY    36  28  73 SE9       30.41R
YANKTON        CLOUDY    37  31  78 E10       30.41R
$$

ABBREVIATIONS USED IN REMARKS
   TC - TEMPERATURE IN CELSIUS
  WCI - WIND CHILL INDEX
   HX - HEAT INDEX
  VSB - VISIBILITY




USA.gov is the U.S. government's official web portal to all federal, state and local government web resources and services.